Location: Hauppauge
(40.8260°N, 73.2030°W)
Time: 06:46:39
(UTC-05:00)

Daily predictions for brighter satellites

Satellite Brightness Start Highest point End
(mag) Time Altitude Azimuth Time Altitude Azimuth Time Altitude Azimuth
Okean 1 3.6 18:02:35 10° N 18:06:40 79° W 18:10:43 10° S
COSMO-SKYMED 1 2.9 18:09:04 10° N 18:13:25 74° WNW 18:17:44 10° SSW
Cosmos 1340 2.6 18:11:15 10° N 18:15:03 85° E 18:18:50 10° S
Cosmos 1602 3.7 18:11:47 10° S 18:15:37 68° E 18:19:31 10° NNE
Cosmos 1741 Rocket 4.2 18:12:22 10° S 18:17:24 50° ESE 18:22:26 10° NNE
SL-16 R/B 4.4 18:16:55 10° NW 18:21:51 31° WSW 18:26:45 10° SSW
Resurs 01 Rocket 2.6 18:19:11 10° SE 18:22:53 27° ENE 18:26:34 10° N
Meteor 1-11 Rocket 3.8 18:17:29 10° S 18:23:14 69° E 18:29:09 10° NNE
NOAA 12 4.1 18:18:01 10° SSE 18:23:19 75° ENE 18:28:40 10° N
Cosmos 2333 Rocket 3.3 18:21:35 10° N 18:26:19 26° NE 18:30:54 11° ESE
Cosmos 1140 Rocket 3.6 18:21:17 10° SSW 18:26:25 80° WNW 18:31:36 10° NNE
Cosmos 614 Rocket 3.9 18:22:18 10° SSW 18:27:22 79° ESE 18:32:27 10° NNE
FENGYUN 3A 3.9 18:25:21 10° SE 18:30:29 46° ENE 18:35:39 10° N
Resurs 1-3 4.5 18:29:39 10° SE 18:33:26 29° ENE 18:37:12 10° N
ATLAS CENTAUR R/B 2.9 18:31:31 10° S 18:34:56 19° SE 18:36:04 16° ESE
Meteor 1-28 Rocket 4.5 18:32:00 10° N 18:35:39 45° WNW 18:39:19 10° SSW
Cosmos 1570 Rocket 3.9 18:31:15 10° NNW 18:36:30 73° ENE 18:41:43 10° SSE
Cosmos 2181 Rocket 4.1 18:30:15 10° N 18:36:33 88° W 18:42:55 10° S
GPS 2-04 Rocket1 3.7 18:32:39 10° WSW 18:36:35 38° S 18:39:41 15° ESE
Cosmos 1633 3.5 18:35:08 10° SSW 18:38:43 52° W 18:42:20 10° N
USA 229 DEB 3.9 18:32:56 10° NNW 18:39:58 59° NE 18:47:06 10° SE
USA 229 3.9 18:33:01 10° NNW 18:40:04 58° NE 18:47:11 10° SE
Genesis I 3.4 18:36:34 10° NW 18:40:30 74° WSW 18:44:24 10° SSE
Cosmos 1238 Rocket 2.9 18:37:46 10° NNW 18:40:40 54° W 18:43:41 10° S
Okean 1 Rocket 3.1 18:37:07 10° S 18:41:36 89° WNW 18:46:07 10° N
Cosmos 2074 Rocket 4.0 18:39:07 10° S 18:45:13 59° E 18:51:23 10° NNE
METEOR-M 4.4 18:39:57 10° S 18:45:16 71° WSW 18:50:37 10° NNW
Cosmos 1892 Rocket 4.4 18:42:01 10° NNE 18:45:47 28° ENE 18:48:49 14° SE
Cosmos 1025 Rocket 3.1 18:44:09 10° N 18:48:30 58° E 18:52:50 10° SSE
SL-08 ROCKET BODY 4.4 18:43:21 10° S 18:49:29 71° E 18:55:40 10° NNE
Spot 2 Rocket 3.6 18:45:25 10° SSE 18:50:18 52° ENE 18:55:15 10° N
OTV 4 2.1 18:48:26 10° SSW 18:50:45 21° SSE 18:51:22 20° SE
Cosmos 2184 Rocket 4.0 18:45:23 10° S 18:51:35 64° E 18:57:46 10° NNE
Meteor 1-5 Rocket 4.3 18:46:06 10° S 18:51:58 63° E 18:57:47 10° NNE
FengYun 1-2 T 4.1 18:49:57 10° SSE 18:55:25 75° ENE 19:00:56 10° N
Hubble Space Telescope 3.0 19:00:13 10° SSW 19:02:16 13° S 19:03:33 12° SSE
Spot 1 4.5 19:00:46 27° ESE 19:02:17 36° ENE 19:06:08 10° N
BREEZE-M DEB (TANK) 2.0 19:00:50 10° SW 19:04:44 85° SSE 19:05:20 48° ENE
Cosmos 1814 Rocket 4.5 19:01:06 10° N 19:05:52 37° ENE 19:07:35 29° ESE
Envisat 4.0 19:06:50 25° ENE 19:06:59 25° ENE 19:11:05 10° NNE
Cosmos 2208 Rocket 4.5 19:02:06 10° NNW 19:07:30 66° WSW 19:12:49 10° S
SJ-6B 4.0 19:05:00 10° S 19:08:48 43° W 19:12:33 10° NNW
Cosmos 1544 Rocket 3.8 19:04:59 10° SSE 19:09:05 44° E 19:13:12 10° NNE
Nadezhda 3 Rocket 4.2 19:03:50 10° N 19:09:42 43° ENE 19:14:49 13° SE
NOSS 3-1 (C) 4.4 19:03:16 10° NNW 19:10:27 46° NE 19:14:48 26° ESE
NOSS 0 Rocket 4.0 19:05:12 10° NNW 19:11:15 57° ENE 19:15:08 22° SE
Cosmos 405 Rocket 2.8 19:07:21 10° N 19:11:21 55° ENE 19:13:12 28° SE
ALOS 2.6 19:07:45 10° S 19:12:23 68° WSW 19:17:04 10° NNW
Cosmos 2237 Rocket 2.6 19:07:16 10° N 19:12:39 41° ENE 19:14:36 31° ESE
HJ-1C 4.1 19:10:21 10° S 19:13:38 54° W 19:16:58 10° NNW
Cosmos 2297 Rocket 2.8 19:09:27 10° SSE 19:14:21 31° ESE 19:14:23 31° ESE
Cosmos 2333 4.4 19:09:12 10° NNW 19:14:56 75° WSW 19:20:41 10° SSE
H-2A R/B 2.6 19:11:46 10° SSE 19:15:29 89° E 19:19:15 10° NNW
CZ-2D R/B 3.1 19:14:14 27° SSE 19:16:11 66° ENE 19:19:59 10° N
COSMOS 2428 3.2 19:11:07 10° NNW 19:16:45 63° WSW 19:22:20 10° S
Cosmos 2341 Rocket 4.3 19:14:00 10° SSE 19:19:53 41° E 19:25:49 10° NNE
Cosmos 2154 Rocket 4.0 19:14:53 10° SSE 19:21:04 57° E 19:27:15 10° NNE
Cosmos 2285 Rocket 4.1 19:17:07 10° NNW 19:23:36 82° WSW 19:29:59 10° SSE
Gbstr 26 Del rocket 4.4 19:20:50 10° W 19:24:05 27° NNW 19:25:41 20° NNE
Cosmos 2219 Rocket 2.1 19:19:21 10° NNW 19:24:59 85° ENE 19:28:57 20° SSE
Okean 2 3.6 19:24:42 10° NNW 19:28:52 71° W 19:33:01 10° S
Cosmos 2219 4.4 19:27:27 10° SW 19:32:54 44° WNW 19:38:23 10° NNE
Helios 1A 2.8 19:33:28 54° SSE 19:34:23 83° ENE 19:38:33 10° NNW
Cosmos 2227 Rocket 2.1 19:29:06 10° S 19:34:39 62° ESE 19:38:28 21° NE
Cosmos 1486 Rocket 4.0 19:29:52 10° S 19:35:02 55° ESE 19:36:15 45° ENE
Helios 1B rocket 2.3 19:31:05 10° NNE 19:35:15 78° ESE 19:39:24 10° S
Atlas Centaur 2 4.0 19:30:30 10° SSW 19:35:17 19° SSE 19:35:47 19° SSE
Abrixas rocket 3.5 19:34:07 10° W 19:37:11 35° NNW 19:37:11 35° NNW
SAR-Lupe-4 4.2 19:44:54 52° WSW 19:45:09 53° W 19:48:40 10° NNW
Cosmos 1455 Rocket 2.9 19:42:10 10° S 19:46:32 85° W 19:50:55 10° N
Cosmos 841 Rocket 4.0 19:42:21 10° N 19:46:24 43° NNE 19:46:24 43° NNE
SL-16 R/B 3.1 19:43:14 10° N 19:47:22 33° NE 19:47:22 33° NE
Cosmos 962 Rocket 4.3 19:45:11 10° S 19:51:20 74° E 19:57:28 10° N
Meteor 2-8 Rocket 4.3 19:48:27 10° N 19:54:29 64° E 19:54:42 64° E
Cosmos 1763 Rocket 3.5 19:52:52 10° NNW 19:57:29 68° NNE 19:57:29 68° NNE
Resurs 01 Rocket 3.6 19:55:31 10° SSW 19:59:16 27° W 20:03:02 10° NW
Cosmos 2333 Rocket 2.9 20:05:19 10° NW 20:10:52 50° WSW 20:12:59 34° SSW
GEOS 3 Rocket 4.4 20:08:20 26° NNE 20:11:04 50° NW 20:16:08 10° WSW
Cosmos 1980 4.0 20:06:21 10° NNW 20:11:55 62° WSW 20:12:50 54° SSW
NOSS 3-1 (A) 4.0 20:36:09 10° NW 20:43:51 75° WSW 20:44:07 75° SW
ATLAS 2AS CENTAUR R/B 3.8 20:42:04 10° NNW 20:48:06 39° NNE 20:48:06 39° NNE
Cosmos 2237 Rocket 3.9 20:51:43 10° NW 20:56:29 28° WSW 20:56:29 28° WSW
Cosmos 2297 Rocket 3.8 20:53:04 10° SW 20:56:25 29° W 20:56:25 29° W
Cosmos 2227 Rocket 4.4 21:14:58 10° W 21:19:10 21° NW 21:20:36 19° NNW
